Find Starlink 32752

NORAD ID: 62567 Int'l Des: 2025-006 Owner: SPXS Country: US Constellation: starlink operational
LEOCIRCULAR

当前视图

正在加载3D地球...

About Starlink 32752

Starlink 32752 (NORAD 62567) is a starlink constellation satellite (v2 mini) launched Jan 10, 2025 by SPXS of US. It operates in LEO, CIRCULAR orbit with a mass of 730.00 kg.

关于 Starlink 32752

正在加载描述...

即将过境

Passes for default location (London). Set your location on the main map for personalized predictions.

高度历史

Loading altitude history...

两行轨道根数

1 62567U 25006P 26168.09003234 .00014369 00000-0 53047-3 0 9998
2 62567 43.0026 91.3079 0000743 272.3790 87.6977 15.27592630 80064
Epoch: Jun 17, 2026 • Age: 30 hours

当前状态

高度 485.0 km
速度 7.63 km/s
星下点 36.08°N, 179.04°E
发射日期 Jan 10, 2025
运行时间 1.4 years
类型 internet

技术详情

分类 Payload
质量 730.00 kg
干质量 700.00 kg
总质量 730.00 kg
长度 0.30 m
直径 4.10 m
跨度 29.00 m
形状 Box + pan
制造商 SPXS
平台类型 Starlink V2M
阶段状态 In Orbit
所有者/国家 SPXS/US

Most Searched